Tracking 19709 objects as of 19-Jun-2019
HD Live streaming from Space Station
objects crossing your sky now

THORAD AGENA D DEB

Track THORAD AGENA D DEB now!
10-day predictions


NORAD ID: 42508
Int'l Code: 1970-025RN
Perigee: 848.5 km
Apogee: 1,027.1 km
Inclination: 99.8 °
Period: 103.6 minutes
Semi major axis: 7308 km
RCS: Unknown
Launch date: April 8, 1970
Source: United States (US)
Launch site: AIR FORCE WESTERN TEST RANGE (AFWTR)

Note: This is SATELLITE DEBRIS
aabbcc
Your satellite tracking list
Your tracking list is empty




NASA's NSSDC Master Catalog

Two Line Element Set (TLE):
1 42508U 70025RN  19164.96708825  .00000140  00000-0  14684-3 0  9990
2 42508  99.8130 218.3778 0122202 283.5091  75.2474 13.89429165820663
Source of the keplerian elements: AFSPC